China Weather Jiading today hourly
Home / China / Jiading / Jiading Hour By Hour Weather - 24hr View

48 Hour View

Time Temp. Wind Dir. Humidity Wind Spd. Precip.
2020-07-20 20:00pm 24°C E 94% 6km/h 72%
2020-07-20 21:00pm 25°C E 95% 8km/h 49%
2020-07-20 22:00pm 25°C E 95% 10km/h 60%
2020-07-20 23:00pm 25°C E 95% 9km/h 49%
2020-07-21 00:00pm 24°C E 95% 2km/h 60%
2020-07-21 01:00pm 24°C E 95% 5km/h 25%
2020-07-21 02:00pm 24°C E 95% 11km/h 20%
2020-07-21 03:00pm 24°C E 96% 11km/h 20%
2020-07-21 04:00pm 24°C E 97% 3km/h 20%
2020-07-21 05:00pm 24°C E 97% 5km/h 20%
2020-07-21 06:00pm 25°C E 96% 9km/h 25%
2020-07-21 07:00pm 25°C E 95% 10km/h 47%
2020-07-21 08:00pm 26°C E 94% 9km/h 51%
2020-07-21 09:00pm 26°C E 91% 7km/h 43%
2020-07-21 10:00pm 27°C E 87% 8km/h 56%
2020-07-21 11:00pm 27°C E 84% 9km/h 48%
2020-07-21 12:00pm 28°C E 83% 9km/h 56%
2020-07-21 13:00pm 28°C E 81% 4km/h 25%
2020-07-21 14:00pm 29°C E 80% 6km/h 20%
2020-07-21 15:00pm 29°C E 81% 1km/h 20%
2020-07-21 16:00pm 29°C E 81% 1km/h 20%
2020-07-21 17:00pm 28°C E 82% 11km/h 20%
2020-07-21 18:00pm 28°C E 84% 10km/h 15%
2020-07-21 19:00pm 28°C E 88% 7km/h 6%
2020-07-21 19:00pm 27°C NW 83% 2km/h 7%
2020-07-21 20:00pm 26°C SE 84% 10km/h 7%
2020-07-21 21:00pm 27°C SE 85% 1km/h 7%
2020-07-21 22:00pm 27°C SE 86% 1km/h 7%
2020-07-21 23:00pm 27°C SE 88% 4km/h 7%
2020-07-22 00:00pm 26°C SE 89% 11km/h 7%
2020-07-22 01:00pm 26°C SE 91% 8km/h 7%
2020-07-22 02:00pm 26°C SE 93% 5km/h 7%
2020-07-22 03:00pm 26°C SE 94% 1km/h 7%
2020-07-22 04:00pm 26°C SE 95% 7km/h 7%
2020-07-22 05:00pm 26°C SE 96% 3km/h 7%
2020-07-22 06:00pm 27°C SE 93% 5km/h 5%
2020-07-22 07:00pm 28°C SE 91% 2km/h 1%
2020-07-22 08:00pm 29°C SE 89% 7km/h 1%
2020-07-22 09:00pm 30°C S 86% 10km/h 1%
2020-07-22 10:00pm 31°C S 84% 3km/h 1%
2020-07-22 11:00pm 31°C S 82% 1km/h 1%
2020-07-22 12:00pm 32°C S 81% 2km/h 3%
2020-07-22 13:00pm 33°C S 80% 7km/h 7%
2020-07-22 14:00pm 33°C S 80% 4km/h 7%
2020-07-22 15:00pm 33°C S 81% 22km/h 7%
2020-07-22 16:00pm 33°C S 82% 12km/h 7%
2020-07-22 17:00pm 32°C S 83% 24km/h 7%
2020-07-22 18:00pm 31°C S 89% 22km/h 5%

More Local Information

Hourly Weather Nearby

Bookmark and Share

Become A Member